Regional Weather Roundup
Issued by NWS

Home | Current Version | Previous Version | Graphics & Text | Print | Product List | Glossary On
Versions: 1 2 3 4 5 6 7 8 9 10 11 12 13 14 15 16 17 18 19 20 21 22 23 24 25 26 27 28 29 30 31 32 33 34 35 36 37 38 39 40 41 42 43 44 45 46 47 48 49 50
000
ASUS44 KMEG 210010
RWRTN
TENNESSEE HOURLY STATE WEATHER ROUNDUP
NATIONAL WEATHER SERVICE MEMPHIS TN
700 PM CDT WED AUG 20 2014

TNZ002-004-019-021-049-052-054-088>092-210100-
WEST TENNESSEE

CITY           SKY/WX    TMP DP  RH WIND       PRES   REMARKS
MEMPHIS INTL   CLEAR     89  70  53 SW9       29.97F HX  94
NWS MEMPHIS      N/A     90 N/A N/A MISG        N/A
JACKSON        CLEAR     87  74  64 S7        29.97S HX  95
DYERSBURG      CLEAR     88  70  55 S3        29.96R HX  92
UNION CITY     CLEAR     88  77  70 S3        29.95R HX 100
PARIS          CLEAR     86  73  66 SW5       29.99R HX  93
HUNTINGDON     CLEAR     87  74  65 SW3       29.98R HX  95
LEXINGTON      CLEAR     88  75  66 SW5       29.99R HX  97
SAVANNAH       PTCLDY    88  75  66 SW3       30.00R HX  97
$$

TNZ008-025-027-028-033-062-065-066-210100-
NORTH MIDDLE TENNESSEE

CITY           SKY/WX    TMP DP  RH WIND       PRES   REMARKS
NASHVILLE      TSTM      72  70  93 S7        30.07R
PORTLAND       MOCLDY    70  68  94 CALM      30.03F
CLARKSVILLE    CLOUDY    72  69  90 SE10      30.02F
SMYRNA         CLOUDY    74  70  87 NW5       30.08R THUNDER
MURFREESBORO   CLOUDY    72  70  93 NW8       30.08R
COOKEVILLE     CLOUDY    70  66  88 E5        30.08F
GALLATIN       CLOUDY    72  72 100 CALM      30.05F
CROSSVILLE     CLOUDY    69  65  86 N7        30.16R
$$

TNZ061-075-076-078-094-096-097-210100-
SOUTH MIDDLE TENNESSEE

CITY           SKY/WX    TMP DP  RH WIND       PRES   REMARKS
LEWISBURG      CLOUDY    77  67  71 E3        30.05R
FAYETTEVILLE   PTCLDY    77  68  73 E12       30.06R
TULLAHOMA      CLEAR     73  70  88 SE5       30.08R
WINCHESTER     MOCLDY    72  70  94 E7        30.08R
MCMINNVILLE    PTCLDY    72  72 100 SE5       30.09R
COLUMBIA       CLEAR     81  72  74 E5        30.04R
SHELBYVILLE    PTCLDY    75  70  83 NE8       30.09R
$$

TNZ017-018-042-046-047-210100-
NORTHEAST TENNESSEE

CITY           SKY/WX    TMP DP  RH WIND       PRES   REMARKS
TRI CITIES     CLOUDY    73  65  75 SW6       30.08R
ELIZABETHTON   CLEAR     70  64  83 CALM      30.09R
$$

TNZ012-013-036-069-073-074-210100-
CENTRAL EAST TENNESSEE

CITY           SKY/WX    TMP DP  RH WIND       PRES   REMARKS
KNOXVILLE      CLOUDY    72  67  84 N10       30.12R THUNDER
OAK RIDGE      HVY RAIN  69  66  90 VRB6G20   30.18R FOG
GATLINBURG     MOCLDY    75  66  73 NW13      30.12R
MORRISTOWN     PTCLDY    72  68  88 N14G30    30.19R
$$

TNZ083-085-099-210100-
SOUTHEAST TENNESSEE

CITY           SKY/WX    TMP DP  RH WIND       PRES   REMARKS
CHATTANOOGA    LGT RAIN  75  68  78 SE6       30.09R
$$

SKY/WX REPORTED AS FAIR MEANS FEW OR NO CLOUDS BELOW
12 THOUSAND FEET.



USA.gov is the U.S. government's official web portal to all federal, state and local government web resources and services.